TimeEDT,TemperatureF,Dew PointF,Humidity,Sea Level PressureIn,VisibilityMPH,Wind Direction,Wind SpeedMPH,Gust SpeedMPH,PrecipitationIn,Events,Conditions,WindDirDegrees,DateUTC
12:15 AM,71.6,69.8,94,30.02,6.0,Calm,Calm,-,N/A,,Clear,0,2012-10-15 04:15:00
12:35 AM,71.6,69.8,94,30.01,7.0,Calm,Calm,-,N/A,,Clear,0,2012-10-15 04:35:00
12:55 AM,71.6,69.8,94,30.00,7.0,Calm,Calm,-,N/A,,Clear,0,2012-10-15 04:55:00
1:35 AM,71.6,69.8,94,30.00,7.0,Calm,Calm,-,N/A,,Clear,0,2012-10-15 05:35:00
1:55 AM,71.6,69.8,94,30.00,7.0,Calm,Calm,-,N/A,,Clear,0,2012-10-15 05:55:00
2:35 AM,71.6,69.8,94,29.97,7.0,Calm,Calm,-,N/A,,Clear,0,2012-10-15 06:35:00
2:55 AM,71.6,69.8,94,29.98,8.0,Calm,Calm,-,N/A,,Clear,0,2012-10-15 06:55:00
3:15 AM,69.8,69.8,100,29.97,7.0,Calm,Calm,-,N/A,,Clear,0,2012-10-15 07:15:00
3:35 AM,69.8,68.0,94,29.96,7.0,Calm,Calm,-,N/A,,Clear,0,2012-10-15 07:35:00
3:55 AM,69.8,68.0,94,29.95,7.0,Calm,Calm,-,N/A,,Clear,0,2012-10-15 07:55:00
4:15 AM,69.8,68.0,94,29.95,7.0,Calm,Calm,-,N/A,,Clear,0,2012-10-15 08:15:00
4:35 AM,69.8,68.0,94,29.95,5.0,Calm,Calm,-,N/A,,Clear,0,2012-10-15 08:35:00
4:55 AM,69.8,69.8,100,29.95,7.0,Calm,Calm,-,N/A,,Clear,0,2012-10-15 08:55:00
5:15 AM,69.8,68.0,94,29.95,6.0,Calm,Calm,-,N/A,,Clear,0,2012-10-15 09:15:00
5:35 AM,69.8,68.0,94,29.95,5.0,Calm,Calm,-,N/A,,Partly Cloudy,0,2012-10-15 09:35:00
5:55 AM,69.8,68.0,94,29.95,6.0,Calm,Calm,-,N/A,,Partly Cloudy,0,2012-10-15 09:55:00
6:15 AM,69.8,68.0,94,29.95,5.0,Calm,Calm,-,N/A,,Clear,0,2012-10-15 10:15:00
6:35 AM,69.8,69.8,100,29.96,5.0,Calm,Calm,-,N/A,,Scattered Clouds,0,2012-10-15 10:35:00
6:55 AM,69.8,68.0,94,29.95,5.0,Calm,Calm,-,N/A,,Scattered Clouds,0,2012-10-15 10:55:00
7:15 AM,69.8,69.8,100,29.95,4.0,Calm,Calm,-,N/A,,Partly Cloudy,0,2012-10-15 11:15:00
7:35 AM,69.8,68.0,94,29.96,4.0,Calm,Calm,-,N/A,,Clear,0,2012-10-15 11:35:00
7:55 AM,69.8,68.0,94,29.96,4.0,Calm,Calm,-,N/A,,Clear,0,2012-10-15 11:55:00
8:15 AM,71.6,69.8,94,29.97,4.0,NW,3.5,-,N/A,,Clear,320,2012-10-15 12:15:00
8:35 AM,71.6,69.8,94,29.97,4.0,Calm,Calm,-,N/A,,Clear,0,2012-10-15 12:35:00
8:55 AM,73.4,71.6,94,29.97,5.0,Calm,Calm,-,N/A,,Clear,0,2012-10-15 12:55:00
9:15 AM,75.2,71.6,89,29.98,5.0,Calm,Calm,-,N/A,,Clear,0,2012-10-15 13:15:00
9:55 AM,80.6,73.4,79,29.98,5.0,Calm,Calm,-,N/A,,Clear,0,2012-10-15 13:55:00
10:15 AM,80.6,73.4,79,29.98,6.0,Calm,Calm,-,N/A,,Clear,0,2012-10-15 14:15:00
10:35 AM,80.6,73.4,79,29.99,5.0,Calm,Calm,-,N/A,,Clear,0,2012-10-15 14:35:00
10:55 AM,82.4,71.6,70,29.98,8.0,Calm,Calm,-,N/A,,Clear,0,2012-10-15 14:55:00
11:15 AM,82.4,71.6,70,29.97,8.0,ENE,4.6,-,N/A,,Clear,70,2012-10-15 15:15:00
11:35 AM,82.4,71.6,70,29.97,5.0,Calm,Calm,-,N/A,,Clear,0,2012-10-15 15:35:00
11:55 AM,84.2,71.6,66,29.97,6.0,Calm,Calm,-,N/A,,Clear,0,2012-10-15 15:55:00
12:15 PM,84.2,69.8,62,29.96,7.0,Calm,Calm,-,N/A,,Scattered Clouds,0,2012-10-15 16:15:00
12:35 PM,84.2,71.6,66,29.95,10.0,Calm,Calm,-,N/A,,Partly Cloudy,0,2012-10-15 16:35:00
12:55 PM,84.2,71.6,66,29.94,9.0,Calm,Calm,-,N/A,,Scattered Clouds,0,2012-10-15 16:55:00
1:15 PM,82.4,71.6,70,29.93,3.0,North,4.6,-,N/A,,Scattered Clouds,350,2012-10-15 17:15:00
1:35 PM,82.4,71.6,70,29.91,9.0,North,8.1,-,N/A,,Scattered Clouds,350,2012-10-15 17:35:00
2:15 PM,86.0,66.2,51,29.90,10.0,NW,10.4,-,N/A,,Partly Cloudy,310,2012-10-15 18:15:00
2:35 PM,86.0,64.4,48,29.89,10.0,NE,6.9,-,N/A,,Clear,40,2012-10-15 18:35:00
2:55 PM,84.2,66.2,55,29.88,9.0,Calm,Calm,-,N/A,,Clear,0,2012-10-15 18:55:00
3:15 PM,84.2,71.6,66,29.87,10.0,ENE,6.9,-,N/A,,Clear,60,2012-10-15 19:15:00
3:35 PM,84.2,69.8,62,29.86,9.0,East,4.6,-,N/A,,Partly Cloudy,80,2012-10-15 19:35:00
3:55 PM,84.2,69.8,62,29.86,9.0,Calm,Calm,-,N/A,,Scattered Clouds,0,2012-10-15 19:55:00
4:15 PM,84.2,69.8,62,29.85,9.0,Calm,Calm,-,N/A,,Scattered Clouds,0,2012-10-15 20:15:00
4:35 PM,82.4,71.6,70,29.85,9.0,ESE,6.9,-,N/A,,Partly Cloudy,110,2012-10-15 20:35:00
4:55 PM,82.4,71.6,70,29.85,10.0,Calm,Calm,-,N/A,,Partly Cloudy,0,2012-10-15 20:55:00
5:15 PM,80.6,73.4,79,29.85,10.0,East,6.9,-,N/A,,Scattered Clouds,100,2012-10-15 21:15:00
5:35 PM,80.6,73.4,79,29.85,8.0,ESE,6.9,-,N/A,,Partly Cloudy,120,2012-10-15 21:35:00
5:55 PM,80.6,73.4,79,29.84,9.0,SE,5.8,-,N/A,,Clear,140,2012-10-15 21:55:00
6:15 PM,80.6,73.4,79,29.84,10.0,SE,5.8,-,N/A,,Clear,130,2012-10-15 22:15:00
6:35 PM,78.8,73.4,83,29.84,8.0,SE,4.6,-,N/A,,Clear,140,2012-10-15 22:35:00
6:55 PM,78.8,73.4,83,29.85,8.0,Calm,Calm,-,N/A,,Clear,0,2012-10-15 22:55:00
7:15 PM,78.8,71.6,78,29.85,9.0,Calm,Calm,-,N/A,,Clear,0,2012-10-15 23:15:00
7:35 PM,77.0,71.6,83,29.85,8.0,Calm,Calm,-,N/A,,Clear,0,2012-10-15 23:35:00
7:55 PM,77.0,71.6,83,29.85,9.0,Calm,Calm,-,N/A,,Clear,0,2012-10-15 23:55:00
8:15 PM,75.2,71.6,89,29.85,8.0,Calm,Calm,-,N/A,,Clear,0,2012-10-16 00:15:00
8:35 PM,75.2,71.6,89,29.87,7.0,Calm,Calm,-,N/A,,Clear,0,2012-10-16 00:35:00
8:55 PM,73.4,71.6,94,29.86,8.0,Calm,Calm,-,N/A,,Clear,0,2012-10-16 00:55:00
9:15 PM,73.4,71.6,94,29.87,8.0,Calm,Calm,-,N/A,,Clear,0,2012-10-16 01:15:00
9:35 PM,73.4,71.6,94,29.88,8.0,Calm,Calm,-,N/A,,Clear,0,2012-10-16 01:35:00
9:55 PM,73.4,71.6,94,29.88,8.0,Calm,Calm,-,N/A,,Clear,0,2012-10-16 01:55:00
10:15 PM,73.4,71.6,94,29.88,7.0,Calm,Calm,-,N/A,,Clear,0,2012-10-16 02:15:00
10:35 PM,71.6,71.6,100,29.88,5.0,Calm,Calm,-,N/A,,Clear,0,2012-10-16 02:35:00
10:55 PM,71.6,71.6,100,29.87,6.0,Calm,Calm,-,N/A,,Clear,0,2012-10-16 02:55:00
11:35 PM,71.6,69.8,94,29.88,8.0,Calm,Calm,-,N/A,,Clear,0,2012-10-16 03:35:00
11:55 PM,71.6,69.8,94,29.88,10.0,Calm,Calm,-,N/A,,Clear,0,2012-10-16 03:55:00